Date String (YYYY-MM-DD hh:mm:ss) UTC,Instrument flags,Ambient pressure (hPa),Sample flow (lpm),Bypass flow (lpm),Sample temperature (°C),Ambient temperature (°C),ASC tube jacket temperature (°C),LED temperature (°C),Box temperature (°C),Sample RH (%),Span deviation,Mass concentration (μg/m³),Mass concentration (μg/m³),Mass concentration (μg/m³)
DateTimeUTC,F1_M11,P_M11,Q1_M11,Q2_M11,T1_M11,T2_M11,T3_M11,T4_M11,T5_M11,U1_M11,ZSPAN_M11,X0_M11,X2_M11,X1_M11
2022-03-03 08:00:00,,0828.0,5.00,0.00,28.4,27.6,00.0,37.4,30.2,09.6,0000.0,0006.31,0001.76,0001.43
2022-03-03 08:01:00,,0828.0,5.01,0.00,28.4,27.6,00.0,37.4,30.1,09.5,0000.0,0006.33,0001.78,0001.44
2022-03-03 08:02:00,,0828.0,5.00,0.00,28.4,27.6,00.0,37.4,30.1,09.5,0000.0,0006.44,0001.80,0001.44
2022-03-03 08:03:00,,0828.0,5.01,0.00,28.4,27.6,00.0,37.4,30.1,09.6,0000.0,0006.39,0001.80,0001.45
2022-03-03 08:04:00,,0828.0,4.99,0.00,28.4,27.5,00.0,37.4,30.1,09.6,0000.0,0005.77,0001.79,0001.46
2022-03-03 08:05:00,,0828.0,5.01,0.00,28.3,27.5,00.0,37.4,30.1,09.6,0000.0,0004.96,0001.78,0001.46
2022-03-03 08:06:00,,0828.0,5.00,0.00,28.3,27.5,00.0,37.4,30.1,09.6,0000.0,0004.74,0001.80,0001.46
2022-03-03 08:07:00,,0828.1,5.01,0.00,28.3,27.5,00.0,37.4,30.1,09.8,0000.0,0004.50,0001.84,0001.47
2022-03-03 08:08:00,,0828.1,5.00,0.00,28.3,27.5,00.0,37.4,30.0,10.0,0000.0,0003.83,0001.81,0001.46
2022-03-03 08:09:00,,0828.1,5.00,0.00,28.3,27.5,00.0,37.4,30.0,09.7,0000.0,0003.64,0001.80,0001.45
2022-03-03 08:10:00,,0828.1,5.00,0.00,28.3,27.5,00.0,37.4,30.0,09.6,0000.0,0003.85,0001.85,0001.47
2022-03-03 08:11:00,,0828.1,5.00,0.00,28.3,27.5,00.0,37.3,30.0,09.7,0000.0,0003.90,0001.87,0001.47
2022-03-03 08:12:00,,0828.1,4.99,0.00,28.3,27.4,00.0,37.3,30.0,09.6,0000.0,0004.21,0001.95,0001.48
2022-03-03 08:13:00,,0828.1,5.00,0.00,28.2,27.4,00.0,37.3,30.0,09.6,0000.0,0004.73,0001.96,0001.48
2022-03-03 08:14:00,,0828.1,5.01,0.00,28.2,27.4,00.0,37.3,30.0,09.5,0000.0,0004.68,0001.94,0001.48
2022-03-03 08:15:00,,0828.1,5.00,0.00,28.2,27.4,00.0,37.3,29.9,09.5,0000.0,0004.80,0001.98,0001.50
2022-03-03 08:16:00,,0828.1,5.01,0.00,28.2,27.4,00.0,37.3,29.9,09.5,0000.0,0004.96,0002.03,0001.52
2022-03-03 08:17:00,,0828.1,5.00,0.00,28.2,27.4,00.0,37.3,29.9,09.5,0000.0,0004.98,0002.03,0001.53
2022-03-03 08:18:00,,0828.1,5.00,0.00,28.2,27.4,00.0,37.3,29.9,09.5,0000.0,0005.02,0002.01,0001.54
2022-03-03 08:19:00,,0828.1,5.00,0.00,28.2,27.4,00.0,37.3,29.9,09.6,0000.0,0005.01,0002.02,0001.56
2022-03-03 08:20:00,,0828.0,5.00,0.00,28.2,27.4,00.0,37.3,29.9,09.5,0000.0,0004.44,0002.08,0001.57
2022-03-03 08:21:00,,0828.1,5.00,0.00,28.2,27.4,00.0,37.3,29.9,09.4,0000.0,0004.55,0002.09,0001.56
2022-03-03 08:22:00,,0828.2,5.00,0.00,28.2,27.4,00.0,37.2,29.9,09.5,0000.0,0004.59,0002.11,0001.56
2022-03-03 08:23:00,,0828.1,5.00,0.00,28.1,27.3,00.0,37.2,29.9,09.5,0000.0,0004.32,0002.02,0001.55
2022-03-03 08:24:00,,0828.0,5.00,0.00,28.1,27.3,00.0,37.2,29.9,09.4,0000.0,0003.78,0002.02,0001.53
2022-03-03 08:25:00,,0828.1,5.00,0.00,28.1,27.3,00.0,37.2,29.8,09.4,0000.0,0003.97,0002.06,0001.52
2022-03-03 08:26:00,,0828.0,5.00,0.00,28.1,27.4,00.0,37.2,29.8,09.4,0000.0,0003.82,0002.00,0001.51
2022-03-03 08:27:00,,0828.0,5.00,0.00,28.1,27.3,00.0,37.2,29.8,09.3,0000.0,0003.60,0001.92,0001.46
2022-03-03 08:28:00,,0828.0,5.00,0.00,28.1,27.3,00.0,37.2,29.8,09.3,0000.0,0003.34,0001.84,0001.40
2022-03-03 08:29:00,,0827.9,5.00,0.00,28.1,27.3,00.0,37.2,29.8,09.4,0000.0,0003.14,0001.79,0001.35
2022-03-03 08:30:00,,0827.9,5.01,0.00,28.1,27.3,00.0,37.2,29.8,09.4,0000.0,0003.06,0001.74,0001.30
2022-03-03 08:31:00,,0827.9,5.00,0.00,28.1,27.3,00.0,37.2,29.8,09.3,0000.0,0002.90,0001.65,0001.26
2022-03-03 08:32:00,,0828.0,4.99,0.00,28.1,27.3,00.0,37.2,29.8,09.4,0000.0,0002.53,0001.52,0001.19
2022-03-03 08:33:00,,0827.9,5.00,0.00,28.1,27.3,00.0,37.2,29.8,09.4,0000.0,0002.43,0001.47,0001.14
2022-03-03 08:34:00,,0827.9,5.01,0.00,28.0,27.3,00.0,37.1,29.8,09.2,0000.0,0002.32,0001.44,0001.12
2022-03-03 08:35:00,,0827.9,5.00,0.00,28.0,27.2,00.0,37.1,29.8,09.2,0000.0,0002.32,0001.43,0001.11
2022-03-03 08:36:00,,0827.8,5.00,0.00,28.0,27.2,00.0,37.1,29.8,09.2,0000.0,0002.06,0001.36,0001.10
2022-03-03 08:37:00,,0827.9,5.00,0.00,28.0,27.2,00.0,37.1,29.8,09.2,0000.0,0002.51,0001.34,0001.09
2022-03-03 08:38:00,,0827.9,5.00,0.00,28.0,27.2,00.0,37.1,29.8,09.2,0000.0,0002.89,0001.38,0001.11
2022-03-03 08:39:00,,0827.9,5.00,0.00,28.0,27.2,00.0,37.1,29.8,09.3,0000.0,0002.98,0001.41,0001.12
2022-03-03 08:40:00,,0827.9,4.99,0.00,28.0,27.2,00.0,37.1,29.7,09.3,0000.0,0002.99,0001.41,0001.12
2022-03-03 08:41:00,,0828.0,5.00,0.00,28.0,27.2,00.0,37.1,29.7,09.3,0000.0,0003.04,0001.42,0001.11
2022-03-03 08:42:00,,0827.9,5.00,0.00,28.0,27.2,00.0,37.1,29.7,09.3,0000.0,0003.07,0001.44,0001.11
2022-03-03 08:43:00,,0828.0,5.01,0.00,28.0,27.2,00.0,37.1,29.7,09.2,0000.0,0003.12,0001.48,0001.12
2022-03-03 08:44:00,,0828.0,5.00,0.00,28.0,27.2,00.0,37.1,29.7,09.3,0000.0,0003.02,0001.43,0001.10
2022-03-03 08:45:00,,0828.0,5.00,0.00,28.0,27.2,00.0,37.0,29.7,09.3,0000.0,0003.04,0001.42,0001.06
2022-03-03 08:46:00,,0828.1,5.00,0.00,28.0,27.1,00.0,37.0,29.7,09.2,0000.0,0002.90,0001.36,0001.01
2022-03-03 08:47:00,,0828.2,5.00,0.00,28.0,27.1,00.0,37.0,29.7,09.1,0000.0,0002.96,0001.35,0000.96
2022-03-03 08:48:00,,0828.0,5.01,0.00,28.0,27.1,00.0,37.0,29.7,09.1,0000.0,0002.69,0001.34,0000.92
2022-03-03 08:49:00,,0828.0,5.00,0.00,27.9,27.1,00.0,37.0,29.7,09.2,0000.0,0002.17,0001.28,0000.88
2022-03-03 08:50:00,,0828.0,5.01,0.00,27.9,27.1,00.0,37.0,29.6,09.2,0000.0,0002.11,0001.24,0000.84
2022-03-03 08:51:00,,0828.0,4.99,0.00,27.9,27.1,00.0,37.0,29.7,09.3,0000.0,0002.05,0001.20,0000.81
2022-03-03 08:52:00,,0827.9,5.00,0.00,27.9,27.1,00.0,37.0,29.7,09.3,0000.0,0002.04,0001.17,0000.78
2022-03-03 08:53:00,,0827.9,5.00,0.00,27.9,27.1,00.0,37.0,29.7,09.4,0000.0,0001.97,0001.13,0000.76
2022-03-03 08:54:00,,0827.9,5.00,0.00,27.9,27.1,00.0,37.0,29.7,09.5,0000.0,0001.91,0001.09,0000.75
2022-03-03 08:55:00,,0827.9,5.00,0.00,27.9,27.1,00.0,37.0,29.7,09.7,0000.0,0001.89,0001.07,0000.74
2022-03-03 08:56:00,,0827.9,5.01,0.00,27.9,27.1,00.0,37.0,29.7,09.8,0000.0,0001.82,0001.04,0000.73
2022-03-03 08:57:00,,0827.9,5.00,0.00,27.9,27.1,00.0,37.0,29.7,09.3,0000.0,0001.78,0001.01,0000.73
2022-03-03 08:58:00,,0827.8,5.00,0.00,27.9,27.1,00.0,37.0,29.7,09.2,0000.0,0001.66,0000.97,0000.72
2022-03-03 08:59:00,,0827.8,4.99,0.00,27.9,27.1,00.0,36.9,29.6,09.1,0000.0,0001.52,0000.94,0000.73
